Pittsfield, MA

5:20 PM EST on January 19, 2017 (GMT -0500)
Pittsfield Municipal

Weather History for KPSF - March, 2014

Change the Weather History Date:

Tuesday, March 25, 2014

  Actual Average Record
Temperature  
Mean Temperature 20 °F 35 °F  
Max Temperature 32 °F 45 °F 67 °F (1936)
Min Temperature 8 °F 25 °F 5 °F (1960)
Degree Days  
Heating Degree Days 45 30  
Month to date heating degree days 1042 855  
Since 1 July heating degree days 6594 6235  
Cooling Degree Days 0 0  
Month to date cooling degree days 0 0  
Year to date cooling degree days 0 0  
Moisture  
Dew Point 8 °F    
Average Humidity 64    
Maximum Humidity 91    
Minimum Humidity 36    
Precipitation  
Precipitation 0.00 in 0.14 in 0.71 in (1954)
Month to date precipitation 1.06 2.54  
Year to date precipitation 7.44 8.14  
Sea Level Pressure  
Sea Level Pressure 30.02 in    
Wind  
Wind Speed 4 mph (SW)    
Max Wind Speed 16 mph    
Max Gust Speed 22 mph    
Visibility 10 miles    
Events      
T = Trace of Precipitation, MM = Missing Value Source: NWS Daily Summary

Daily Weather History Graph

Daily Weather History Graph

Search for Another Location

Airport or City:

Trip Planner

Search our weather history database for the weather conditions in past years. The results will help you decide how hot, cold, wet, or windy it might be!

Date:

Astronomy

Mar. 25, 2014 Rise Set
Actual Time 6:47 AM EDT 7:11 PM EDT
Civil Twilight 6:19 AM EDT 7:39 PM EDT
Nautical Twilight 5:46 AM EDT 8:12 PM EDT
Astronomical Twilight 5:12 AM EDT 8:46 PM EDT
Moon 3:13 AM EDT (3/25) 1:32 PM EDT (3/25)
Length of Visible Light 13h 19m
Length of Day
12h 23m
Waning Crescent, 32% of the Moon is Illuminated
Mar 25
Waning Crescent
Mar 30
New
Apr 7
First Quarter
Apr 15
Full
Apr 22
Last Quarter

Hourly Weather History & Observations

Time (EDT) Temp. Windchill Dew Point Humidity Pressure Visibility Wind Dir Wind Speed Gust Speed Precip Events Conditions
12:54 AM 14.0 °F 8.2 °F 5.0 °F 67% 30.13 in 10.0 mi SW 3.5 mph - N/A   Clear
1:54 AM 12.0 °F 4.1 °F 5.0 °F 73% 30.11 in 10.0 mi WSW 4.6 mph - N/A   Clear
2:54 AM 10.0 °F - 5.0 °F 80% 30.10 in 10.0 mi Calm Calm - N/A   Clear
3:54 AM 10.0 °F - 5.0 °F 80% 30.09 in 10.0 mi Calm Calm - N/A   Clear
4:54 AM 9.0 °F - 5.0 °F 84% 30.09 in 10.0 mi Calm Calm - N/A   Mostly Cloudy
5:54 AM 8.1 °F - 5.0 °F 87% 30.10 in 10.0 mi Calm Calm - N/A   Scattered Clouds
6:54 AM 9.0 °F - 6.1 °F 88% 30.11 in 8.0 mi Calm Calm - N/A   Partly Cloudy
7:54 AM 10.9 °F - 7.0 °F 84% 30.11 in 7.0 mi Calm Calm - N/A   Overcast
8:54 AM 14.0 °F - 9.0 °F 80% 30.09 in 7.0 mi Calm Calm - N/A   Overcast
9:54 AM 18.0 °F - 9.0 °F 68% 30.09 in 10.0 mi Calm Calm - N/A   Overcast
10:54 AM 24.1 °F 13.1 °F 6.1 °F 46% 30.06 in 10.0 mi SSW 11.5 mph - N/A   Partly Cloudy
11:54 AM 26.1 °F 14.5 °F 6.1 °F 43% 30.06 in 10.0 mi SW 13.8 mph 18.4 mph N/A   Partly Cloudy
12:54 PM 28.0 °F 19.3 °F 7.0 °F 41% 30.05 in 10.0 mi WSW 9.2 mph - N/A   Partly Cloudy
1:54 PM 30.0 °F 21.7 °F 8.1 °F 40% 30.02 in 10.0 mi SSW 9.2 mph 20.7 mph N/A   Scattered Clouds
2:54 PM 30.0 °F 21.1 °F 7.0 °F 38% 29.99 in 10.0 mi SW 10.4 mph - N/A   Mostly Cloudy
3:54 PM 30.9 °F 22.8 °F 9.0 °F 40% 29.97 in 10.0 mi SW 9.2 mph 17.3 mph N/A   Overcast
4:54 PM 30.9 °F 22.8 °F 9.0 °F 40% 29.95 in 10.0 mi WSW 9.2 mph - N/A   Overcast
5:54 PM 30.9 °F 26.2 °F 9.0 °F 40% 29.94 in 10.0 mi ESE 4.6 mph - N/A   Mostly Cloudy
6:54 PM 30.0 °F 24.1 °F 10.9 °F 45% 29.94 in 10.0 mi SSE 5.8 mph - N/A   Clear
7:54 PM 28.0 °F - 12.0 °F 51% 29.93 in 10.0 mi North - - N/A   Clear
8:54 PM 27.0 °F - 15.1 °F 61% 29.94 in 10.0 mi Calm Calm - N/A   Clear
9:54 PM 27.0 °F - 14.0 °F 58% 29.93 in 10.0 mi Calm Calm - N/A   Clear
10:54 PM 27.0 °F - 14.0 °F 58% 29.92 in 10.0 mi Calm Calm - N/A   Clear
11:54 PM 26.1 °F 21.9 °F 15.1 °F 63% 29.88 in 10.0 mi North 3.5 mph - N/A   Clear